Location: Fontevrault
(47.1823°N, 0.0493°E)
Time: 04:19:28
(UTC+00:00)

Cosmos 1459 Rocket - Pass Details

Date: 17 October 2021
Orbit: 936 x 1000 km, 83.0° (Epoch: 01 December)

Event Time Altitude Azimuth Distance (km) Brightness Sun altitude
Exits shadow 19:16:10 13° 36° (NE) 2,477 5.9 -22.4°
Drops below altitude 10° 19:16:58 10° 31° (NNE) 2,705 6.1 -22.5°
Sets 19:19:52 0° 19° (NNE) 3,646 6.9 -23.0°
